Starlink 2092

operational
NORAD ID: 47373 Int'l Des: 2021-005 Owner: SPXS Country: US Constellation: starlink
LEOCIRCULARSTARLINK_TYPE

关于 Starlink 2092

正在加载描述...

实时位置

正在加载3D地球...

即将过境

高度历史

Altitude vs Time

uPlot chart will show altitude changes over time

两行轨道根数

1 47373U 21005AA 25350.55983407 -.00000471 00000-0 -12706-4 0 9992
2 47373 53.0551 74.8031 0001363 89.5790 270.5355 15.06403056270511
Epoch: Dec 16, 2025 • Age: 16 hours

当前状态

高度 548.0 km
速度 7.59 km/s
星下点 0.61°N, 94.26°W
发射日期 Jan 20, 2021
运行时间 4.9 years
类型 internet

技术详情

分类 Payload
质量 260.00 kg
干质量 248.00 kg
总质量 260.00 kg
长度 0.20 m
直径 2.80 m
跨度 9.00 m
形状 Box + pan
制造商 SPXS
平台类型 Starlink
阶段状态 In Orbit
所有者/国家 SPXS/US

大型星座

Loading constellations...